Location: *
(34.8620°S, 39.3380°E)
Time: 21:45:37
(UTC+00:00)

SKYSAT 2 - Pass Details

Date: 08 December 2023
Orbit: 613 x 623 km, 98.3° (Epoch: 01 March)

Event Time Altitude Azimuth Distance (km) Brightness Sun altitude
Exits shadow 19:37:48 41° 155° (SSE) 915 ? -28.0°
Drops below altitude 10° 19:40:59 10° 183° (S) 2,026 ? -28.3°
Sets 19:43:13 0° 187° (S) 2,940 ? -28.4°
